Solon, Ohio
Current Conditions -  °F | °C
As of 7:45 AM on Tuesday 21 Oct 2014 (Local Time) from KCGF Reporting Station
Overcast Overcast  
Wind Chill: 52°   Ceiling: 1000
Heat Index: 52°   Visibility: 7mi
Dew Point: 50°   Wind: 12mph
Humidity: 94%   Direction: 350°N
Pressure: 29.89"   Gusts: NA
Location:  41.39°N, 81.43°W
Report Text: KCGF 211145Z 35010KT 7SM BKN010 OVC025 11/10 A2989
Loading
Personal Weather Stations






























Interactive Weather Map
Tropical Storm Tracking
New forecast layout! Learn more

10-Day Weather Forecast

Advertisements
Track Severe Weather on mobile